DW8501 Madrid ES current weather conditions

sailwx.info

Wind from 065 at 1 knots gusting 3

Air temperature 21.7° C
Dewpoint 11.9° C

Last reported at 2016-Aug-31 03:50 UTC.
Time now 2016-Aug-31 06:06 UTC

Location: N 40°27' W 003°35'.
View on Google Maps.

See reports from other nearby stations

  
Tides and Currents Weather Stations Pressure Air Temp Water Temp Dewpoint Dewpoint Depression Visibility Wind Speed Wind Dir Waves Ship Positions
date/time (UTC)wind fromknots sea level pressurealtimeterstation pressurevisibilityair tempwater tempwave heightnotes
2016-Aug-31 03:50 065 1 gusting 3 21.7
2016-Aug-31 03:45 052 1 gusting 3 21.7
2016-Aug-31 03:40 040 2 gusting 3 21.7
2016-Aug-31 03:35 039 2 gusting 3 21.7
2016-Aug-31 03:30 037 1 gusting 5 21.7
2016-Aug-31 03:25 040 1 gusting 5 21.7
2016-Aug-31 03:20 046 2 gusting 5 21.7
2016-Aug-31 03:15 046 3 gusting 4 21.7
2016-Aug-31 03:10 040 3 gusting 4 21.7
2016-Aug-31 03:05 039 3 gusting 3 21.7
2016-Aug-31 03:00 050 1 gusting 3 22.2
2016-Aug-31 02:55 047 1 gusting 3 22.2
2016-Aug-31 02:50 035 0 gusting 3 22.2
2016-Aug-31 02:45 035 1 gusting 3 22.2
2016-Aug-31 02:40 072 1 gusting 3 22.2
2016-Aug-31 02:35 089 1 gusting 4 22.2
2016-Aug-31 02:30 087 2 gusting 4 22.2
2016-Aug-31 02:25 088 2 gusting 4 22.2
2016-Aug-31 02:20 093 1 gusting 3 22.2
2016-Aug-31 02:15 096 1 gusting 4 22.8
2016-Aug-31 02:10 087 2 gusting 4 22.8
2016-Aug-31 02:05 084 1 gusting 4 22.8
2016-Aug-31 02:00 091 3 gusting 3 22.8
2016-Aug-31 01:55 095 1 gusting 1 22.8
2016-Aug-31 01:50 089 0 gusting 3 22.8
2016-Aug-31 01:45 078 1 gusting 3 22.8
2016-Aug-31 01:40 077 1 gusting 3 22.8
2016-Aug-31 01:35 088 1 gusting 3 22.8
2016-Aug-31 01:30 085 1 gusting 4 22.8
2016-Aug-31 01:25 084 1 gusting 4 22.8
2016-Aug-31 01:20 094 3 gusting 4 22.8
2016-Aug-31 01:15 110 2 gusting 5 22.8
2016-Aug-31 01:10 104 3 gusting 6 22.8
2016-Aug-31 01:05 090 4 gusting 6 23.3
2016-Aug-31 01:00 089 4 gusting 6 23.3
2016-Aug-31 00:55 090 3 gusting 7 23.3
2016-Aug-31 00:50 096 3 gusting 7 23.3
2016-Aug-31 00:45 106 4 gusting 6 23.3
2016-Aug-31 00:40 092 2 gusting 6 23.9
2016-Aug-31 00:35 095 3 gusting 9 23.9
2016-Aug-31 00:30 097 3 gusting 9 23.9
2016-Aug-31 00:25 093 7 gusting 9 23.9
2016-Aug-31 00:20 093 4 gusting 11 24.4
2016-Aug-31 00:15 090 6 gusting 11 24.4
2016-Aug-31 00:10 090 6 gusting 11 24.4
2016-Aug-31 00:05 098 6 gusting 11 25.0
2016-Aug-31 00:00 092 6 gusting 11 25.0
2016-Aug-30 23:55 083 5 gusting 10 25.0
2016-Aug-30 23:50 107 4 gusting 11 25.0
2016-Aug-30 23:45 104 5 gusting 14 25.6
2016-Aug-30 23:40 090 9 gusting 14 25.6
2016-Aug-30 23:35 079 6 gusting 8 25.6
2016-Aug-30 23:30 075 6 gusting 6 26.1
2016-Aug-30 23:25 086 4 gusting 9 26.1
2016-Aug-30 23:20 085 3 gusting 9 26.1
2016-Aug-30 23:15 087 3 gusting 8 26.7
2016-Aug-30 23:10 074 5 gusting 11 26.7
2016-Aug-30 23:05 063 5 gusting 11 26.7
2016-Aug-30 23:00 063 8 gusting 10 26.7
2016-Aug-30 22:55 071 6 gusting 7 26.7
2016-Aug-30 22:50 066 3 gusting 6 26.7
2016-Aug-30 22:45 057 4 gusting 6 26.7
2016-Aug-30 22:40 061 2 gusting 6 26.7
2016-Aug-30 22:35 067 3 gusting 5 26.7
2016-Aug-30 22:30 26.1
2016-Aug-30 22:25 054 0 gusting 2 26.7
2016-Aug-30 22:20 032 1 gusting 4 26.7
2016-Aug-30 22:15 029 1 gusting 4 26.7
2016-Aug-30 22:10 037 3 gusting 4 26.7
2016-Aug-30 22:05 035 3 gusting 4 26.7
2016-Aug-30 22:00 020 3 gusting 5 26.7
2016-Aug-30 21:55 025 1 gusting 6 26.7
2016-Aug-30 21:50 035 1 gusting 6 26.7
2016-Aug-30 21:45 038 3 gusting 10 26.7
2016-Aug-30 21:40 022 3 gusting 10 26.7
2016-Aug-30 21:35 327 1 gusting 2 26.7
2016-Aug-30 21:30 319 1 gusting 2 26.7
2016-Aug-30 21:25 333 1 gusting 2 26.7
2016-Aug-30 21:20 357 1 gusting 2 26.7
2016-Aug-30 21:15 016 1 gusting 2 27.2
2016-Aug-30 21:10 029 1 gusting 1 27.2
2016-Aug-30 21:05 286 0 gusting 1 27.8
2016-Aug-30 21:00 286 0 gusting 1 27.8
2016-Aug-30 20:55 238 0 gusting 3 27.8
2016-Aug-30 20:50 213 1 gusting 3 27.8
2016-Aug-30 20:45 199 1 gusting 3 27.8
2016-Aug-30 20:40 200 1 gusting 2 27.8
2016-Aug-30 20:35 239 1 gusting 1 28.3
2016-Aug-30 20:30 254 0 gusting 2 28.3
2016-Aug-30 20:25 242 1 gusting 2 28.3
2016-Aug-30 20:20 233 1 gusting 2 28.3
2016-Aug-30 20:15 297 1 gusting 2 28.3
2016-Aug-30 20:10 354 0 gusting 2 28.3
2016-Aug-30 20:05 348 1 gusting 2 28.3
2016-Aug-30 20:00 348 1 gusting 2 28.3
2016-Aug-30 19:55 358 1 gusting 2 28.9
2016-Aug-30 19:50 250 1 gusting 2 29.4
2016-Aug-30 19:45 225 0 gusting 3 29.4
2016-Aug-30 19:40 225 1 gusting 3 30.0
2016-Aug-30 19:35 225 1 gusting 3 30.0
2016-Aug-30 19:30 225 2 gusting 3 30.0
2016-Aug-30 19:25 225 2 gusting 3 30.0
2016-Aug-30 19:20 225 1 gusting 3 30.0
2016-Aug-30 19:15 221 1 gusting 2 30.0
2016-Aug-30 19:10 203 1 gusting 3 30.0
2016-Aug-30 19:05 217 1 gusting 3 30.6
2016-Aug-30 19:00 220 2 gusting 4 30.6
2016-Aug-30 18:55 197 3 gusting 4 30.6
2016-Aug-30 18:50 214 1 gusting 3 31.1
2016-Aug-30 18:45 31.1
2016-Aug-30 18:40 227 2 gusting 7 31.7
2016-Aug-30 18:35 254 3 gusting 8 31.7
2016-Aug-30 18:30 275 4 gusting 8 32.2
2016-Aug-30 18:25 269 5 gusting 8 32.2
2016-Aug-30 18:20 235 3 gusting 6 32.2
2016-Aug-30 18:15 221 5 gusting 6 32.8
2016-Aug-30 18:10 220 4 gusting 6 32.8
2016-Aug-30 18:05 228 3 gusting 6 33.3
2016-Aug-30 18:00 248 3 gusting 8 33.3
2016-Aug-30 17:55 250 1 gusting 8 32.8
2016-Aug-30 17:50 244 5 gusting 6 33.3
2016-Aug-30 17:45 237 4 gusting 5 33.3
2016-Aug-30 17:40 250 3 gusting 6 33.3
2016-Aug-30 17:35 240 5 gusting 8 32.8
2016-Aug-30 17:30 226 3 gusting 11 32.8
2016-Aug-30 17:25 218 6 gusting 11 32.8
2016-Aug-30 17:20 220 6 gusting 13 32.8
2016-Aug-30 17:15 229 3 gusting 13 32.8
2016-Aug-30 17:10 222 12 gusting 13 33.3
2016-Aug-30 17:05 241 6 gusting 6 33.9
2016-Aug-30 17:00 270 1 gusting 10 32.8
2016-Aug-30 16:55 256 6 gusting 13 32.8
2016-Aug-30 16:50 256 6 gusting 13 32.8
2016-Aug-30 16:45 240 9 gusting 13 33.3
2016-Aug-30 16:40 223 4 gusting 11 33.3
2016-Aug-30 16:35 257 8 gusting 11 33.3
2016-Aug-30 16:30 248 4 gusting 9 33.3
2016-Aug-30 16:25 214 6 gusting 11 33.3
2016-Aug-30 16:20 241 6 gusting 11 32.8
2016-Aug-30 16:15 296 6 gusting 9 33.3
2016-Aug-30 16:10 264 1 gusting 9 32.8
2016-Aug-30 16:05 254 6 gusting 10 32.8
2016-Aug-30 16:00 272 6 gusting 13 32.8
2016-Aug-30 15:55 270 9 gusting 15 32.8
2016-Aug-30 15:50 246 6 gusting 15 33.3
2016-Aug-30 15:45 187 13 gusting 14 34.4
2016-Aug-30 15:40 226 1 gusting 9 33.3
2016-Aug-30 15:35 253 3 gusting 13 32.8
2016-Aug-30 15:30 280 4 gusting 13 32.8
2016-Aug-30 15:25 290 9 gusting 13 33.3
2016-Aug-30 15:20 246 3 gusting 10 32.8
2016-Aug-30 15:15 258 3 gusting 10 32.2
2016-Aug-30 15:10 275 6 gusting 9 32.2
2016-Aug-30 15:05 274 6 gusting 9 32.8
2016-Aug-30 15:00 290 2 gusting 9 32.2
2016-Aug-30 14:55 265 4 gusting 11 32.2
2016-Aug-30 14:50 254 6 gusting 12 32.2
2016-Aug-30 14:45 277 6 gusting 12 32.2
2016-Aug-30 14:40 288 10 gusting 12 32.2
2016-Aug-30 14:35 288 4 gusting 11 32.2
2016-Aug-30 14:30 268 4 gusting 11 31.7
2016-Aug-30 14:25 262 3 gusting 12 31.7
2016-Aug-30 14:20 261 7 gusting 12 32.2
2016-Aug-30 14:15 280 3 gusting 9 32.8
2016-Aug-30 14:10 302 2 gusting 8 32.2
2016-Aug-30 14:05 253 5 gusting 9 31.7
2016-Aug-30 14:00 229 6 gusting 11 31.7
2016-Aug-30 13:55 241 8 gusting 12 31.7
2016-Aug-30 13:50 277 6 gusting 12 31.1
2016-Aug-30 13:45 302 2 gusting 11 31.1
2016-Aug-30 13:40 284 6 gusting 11 31.1
2016-Aug-30 13:35 260 3 gusting 12 31.1
2016-Aug-30 13:30 234 3 gusting 12 31.7
2016-Aug-30 13:25 222 3 gusting 8 31.7
2016-Aug-30 13:20 267 1 gusting 13 30.6
2016-Aug-30 13:15 284 3 gusting 13 30.6
2016-Aug-30 13:10 293 9 gusting 11 31.1
2016-Aug-30 13:05 315 1 gusting 6 31.1
2016-Aug-30 13:00 313 3 gusting 6 30.6
2016-Aug-30 12:55 273 4 gusting 6 30.0
2016-Aug-30 12:50 282 3 gusting 10 30.0
2016-Aug-30 12:45 289 3 gusting 10 29.4
2016-Aug-30 12:40 236 3 gusting 8 30.6
2016-Aug-30 12:35 162 1 gusting 5 30.6
2016-Aug-30 12:30 174 1 gusting 5 30.6
2016-Aug-30 12:25 201 3 gusting 5 30.6
2016-Aug-30 12:20 176 1 gusting 6 30.6
2016-Aug-30 12:15 144 1 gusting 6 30.6
2016-Aug-30 12:10 136 0 gusting 5 30.6
2016-Aug-30 12:05 142 0 gusting 5 30.6
2016-Aug-30 12:00 124 3 gusting 6 30.6
2016-Aug-30 11:55 140 1 gusting 6 29.4
2016-Aug-30 11:50 140 3 gusting 6 29.4
2016-Aug-30 11:45 118 2 gusting 5 28.9
2016-Aug-30 11:40 122 1 gusting 6 28.3
2016-Aug-30 11:35 071 3 gusting 10 27.2
2016-Aug-30 11:30 049 4 gusting 11 26.7
2016-Aug-30 11:25 054 8 gusting 11 26.7
2016-Aug-30 11:20 064 4 gusting 9 26.7
2016-Aug-30 11:15 069 4 gusting 9 26.7
2016-Aug-30 11:10 066 3 gusting 9 26.1
2016-Aug-30 11:05 053 6 gusting 12 26.1
2016-Aug-30 11:00 049 3 gusting 12 25.6
2016-Aug-30 10:55 047 6 gusting 6 25.6
2016-Aug-30 10:50 045 4 gusting 8 25.6
2016-Aug-30 10:45 051 5 gusting 8 26.1
2016-Aug-30 10:40 172 3 gusting 6 26.7
2016-Aug-30 10:35 078 1 gusting 9 25.6
2016-Aug-30 10:30 053 3 gusting 9 25.0
2016-Aug-30 10:25 044 6 gusting 7 25.0
2016-Aug-30 10:20 060 5 gusting 9 25.0
2016-Aug-30 10:15 054 0 gusting 9 25.0
2016-Aug-30 10:10 031 1 gusting 6 24.4
2016-Aug-30 10:05 060 3 gusting 9 23.9
2016-Aug-30 10:00 054 4 gusting 9 23.9
2016-Aug-30 09:55 045 2 gusting 8 23.3
2016-Aug-30 09:50 051 3 gusting 9 23.3
2016-Aug-30 09:45 047 4 gusting 9 22.8
2016-Aug-30 09:40 049 4 gusting 9 22.8
2016-Aug-30 09:35 050 3 gusting 9 22.2
2016-Aug-30 09:30 051 6 gusting 9 21.7
2016-Aug-30 09:25 067 2 gusting 6 21.7
2016-Aug-30 09:20 061 4 gusting 8 21.7
2016-Aug-30 09:15 055 4 gusting 9 21.1
2016-Aug-30 09:10 059 4 gusting 9 20.6
2016-Aug-30 09:05 050 7 gusting 9 20.6
2016-Aug-30 09:00 040 6 gusting 8 20.6
2016-Aug-30 08:55 042 6 gusting 8 20.6
2016-Aug-30 08:50 044 3 gusting 9 20.6
2016-Aug-30 08:45 042 3 gusting 9 20.6
2016-Aug-30 08:40 048 6 gusting 8 20.6
2016-Aug-30 08:35 060 6 gusting 9 20.6
2016-Aug-30 08:30 070 3 gusting 9 20.0
2016-Aug-30 08:25 065 9 gusting 9 20.0
2016-Aug-30 08:20 058 3 gusting 9 19.4
2016-Aug-30 08:15 062 6 gusting 9 19.4
2016-Aug-30 08:10 077 6 gusting 10 19.4
2016-Aug-30 08:05 071 3 gusting 10 19.4
2016-Aug-30 08:00 064 5 gusting 9 19.4
2016-Aug-30 07:55 061 6 gusting 9 19.4
2016-Aug-30 07:50 063 5 gusting 9 18.9
2016-Aug-30 07:45 069 6 gusting 9 19.4
2016-Aug-30 07:40 075 2 gusting 9 19.4
2016-Aug-30 07:35 075 6 gusting 10 18.9
2016-Aug-30 07:30 060 6 gusting 10 18.9
2016-Aug-30 07:25 081 4 gusting 8 18.9
2016-Aug-30 07:20 090 4 gusting 8 18.9
2016-Aug-30 07:15 066 6 gusting 7 18.9
2016-Aug-30 07:10 062 6 gusting 10 18.9
2016-Aug-30 07:05 063 6 gusting 11 18.3
2016-Aug-30 07:00 050 9 gusting 11 18.3
2016-Aug-30 06:55 053 8 gusting 10 18.3
2016-Aug-30 06:50 050 6 gusting 10 18.3
2016-Aug-30 06:45 055 8 gusting 10 18.3
2016-Aug-30 06:40 068 8 gusting 9 18.3
2016-Aug-30 06:35 056 6 gusting 9 18.3
2016-Aug-30 06:30 065 6 gusting 11 18.3
2016-Aug-30 06:25 060 6 gusting 12 18.3
2016-Aug-30 06:20 043 7 gusting 12 18.3
2016-Aug-30 06:15 042 7 gusting 12 18.3
2016-Aug-30 06:10 049 9 gusting 12 18.3
2016-Aug-30 06:05 051 6 gusting 11 18.3
2016-Aug-30 06:00 049 6 gusting 12 18.3
2016-Aug-30 05:55 056 7 gusting 13 18.3
2016-Aug-30 05:50 060 10 gusting 13 18.3
2016-Aug-30 05:45 062 9 gusting 13 18.3
2016-Aug-30 05:40 062 11 gusting 13 18.3
2016-Aug-30 05:35 053 7 gusting 13 18.3
2016-Aug-30 05:30 062 4 gusting 13 18.3
2016-Aug-30 05:25 074 6 gusting 12 18.3
2016-Aug-30 05:20 058 6 gusting 12 18.3
2016-Aug-30 05:15 055 7 gusting 13 18.3
2016-Aug-30 05:10 067 6 gusting 13 18.3
2016-Aug-30 05:05 060 8 gusting 13 18.3
2016-Aug-30 05:00 067 8 gusting 13 18.3
2016-Aug-30 04:55 065 4 gusting 13 18.3
2016-Aug-30 04:50 052 9 gusting 13 18.3
2016-Aug-30 04:45 058 3 gusting 13 18.3
2016-Aug-30 04:40 054 8 gusting 13 18.3
2016-Aug-30 04:35 051 7 gusting 12 18.3
2016-Aug-30 04:30 053 6 gusting 12 18.3
2016-Aug-30 04:25 047 5 gusting 10 18.3
2016-Aug-30 04:20 040 7 gusting 10 18.3
2016-Aug-30 04:15 046 6 gusting 11 18.3
2016-Aug-30 04:10 051 6 gusting 11 18.3
2016-Aug-30 04:05 047 9 gusting 13 18.3
2016-Aug-30 04:00 055 6 gusting 13 18.3
2016-Aug-30 03:55 050 9 gusting 13 18.9
2016-Aug-30 03:50 043 9 gusting 13 18.3
2016-Aug-30 03:45 051 11 gusting 13 18.9
2016-Aug-30 03:40 057 9 gusting 13 18.9
2016-Aug-30 03:35 052 6 gusting 13 18.9
2016-Aug-30 03:30 054 9 gusting 13 18.9
2016-Aug-30 03:25 051 9 gusting 13 18.9
2016-Aug-30 03:20 049 9 gusting 13 18.9
2016-Aug-30 03:15 051 6 gusting 13 18.9
2016-Aug-30 03:10 049 8 gusting 12 19.4
2016-Aug-30 03:05 050 6 gusting 11 19.4
2016-Aug-30 03:00 047 8 gusting 12 19.4
2016-Aug-30 02:55 049 6 gusting 12 19.4
2016-Aug-30 02:50 056 10 gusting 13 19.4
2016-Aug-30 02:45 071 7 gusting 14 19.4
2016-Aug-30 02:40 069 10 gusting 14 19.4
2016-Aug-30 02:35 054 9 gusting 14 19.4
2016-Aug-30 02:30 039 7 gusting 10 19.4
2016-Aug-30 02:25 038 6 gusting 10 20.0
2016-Aug-30 02:20 042 6 gusting 13 20.0
2016-Aug-30 02:15 040 6 gusting 13 20.0
2016-Aug-30 02:05 066 7 gusting 13 20.0
2016-Aug-30 02:00 081 9 gusting 13 20.0
2016-Aug-30 01:50 080 9 gusting 14 20.0
2016-Aug-30 01:45 067 11 gusting 14 20.6
2016-Aug-30 01:40 062 6 gusting 14 20.6
2016-Aug-30 01:35 056 8 gusting 14 20.6
2016-Aug-30 01:30 050 8 gusting 13 20.6
2016-Aug-30 01:25 047 6 gusting 13 20.6
2016-Aug-30 01:20 044 9 gusting 13 20.6
2016-Aug-30 01:15 056 6 gusting 13 20.6
2016-Aug-30 01:05 063 10 gusting 16 20.6
2016-Aug-30 01:00 062 11 gusting 14 20.6
2016-Aug-30 00:50 061 6 gusting 14 21.1
2016-Aug-30 00:45 061 9 gusting 14 21.1
2016-Aug-30 00:40 076 9 gusting 13 21.1
2016-Aug-30 00:35 081 7 gusting 14 21.1
2016-Aug-30 00:30 068 6 gusting 14 21.1
2016-Aug-30 00:25 064 11 gusting 14 21.1
2016-Aug-30 00:20 071 9 gusting 14 21.1
2016-Aug-30 00:15 058 6 gusting 14 21.1
2016-Aug-30 00:05 061 9 gusting 15 21.7
2016-Aug-29 23:55 081 7 gusting 19 21.7
2016-Aug-29 23:50 069 14 gusting 19 21.7
2016-Aug-29 23:45 063 6 gusting 14 22.2
2016-Aug-29 23:40 074 11 gusting 18 22.2
2016-Aug-29 23:35 076 9 gusting 18 22.2
2016-Aug-29 23:30 075 13 gusting 18 22.2
2016-Aug-29 23:25 070 9 gusting 17 22.2
2016-Aug-29 23:20 064 10 gusting 18 22.2
2016-Aug-29 23:15 060 6 gusting 18 22.8
2016-Aug-29 23:10 058 11 gusting 16 22.8
2016-Aug-29 23:00 066 11 gusting 17 22.8
2016-Aug-29 22:55 069 8 gusting 17 23.3
2016-Aug-29 22:50 059 7 gusting 18 23.3
2016-Aug-29 22:45 069 9 gusting 18 23.3
2016-Aug-29 22:40 071 6 gusting 14 23.3
2016-Aug-29 22:35 059 9 gusting 18 23.9
2016-Aug-29 22:30 064 9 gusting 18 23.9
2016-Aug-29 22:25 059 10 gusting 14 23.9
2016-Aug-29 22:15 071 9 gusting 17 24.4
2016-Aug-29 22:10 069 11 gusting 14 24.4
2016-Aug-29 22:05 060 9 gusting 14 25.0
2016-Aug-29 22:00 059 9 gusting 26 25.0
2016-Aug-29 21:55 058 13 gusting 26 25.0
2016-Aug-29 21:50 056 17 gusting 19 25.6
2016-Aug-29 21:45 064 13 gusting 19 25.6
2016-Aug-29 21:40 057 10 gusting 19 25.6
2016-Aug-29 21:35 045 13 gusting 19 26.1
2016-Aug-29 21:30 043 13 gusting 19 26.1
2016-Aug-29 21:20 046 13 gusting 19 26.7
2016-Aug-29 21:15 058 15 gusting 19 26.7
2016-Aug-29 21:10 056 14 gusting 23 27.2
2016-Aug-29 21:05 059 13 gusting 23 27.2
2016-Aug-29 21:00 069 13 gusting 20 27.2
2016-Aug-29 20:55 066 6 gusting 18 27.8
2016-Aug-29 20:50 053 7 gusting 16 27.8
2016-Aug-29 20:45 045 13 gusting 16 27.8
2016-Aug-29 20:40 054 8 gusting 15 27.8
2016-Aug-29 20:35 055 8 gusting 15 27.8
2016-Aug-29 20:30 051 9 gusting 15 27.8
2016-Aug-29 20:25 054 11 gusting 18 27.8
2016-Aug-29 20:20 054 11 gusting 18 27.8
2016-Aug-29 20:15 050 10 gusting 19 28.3
2016-Aug-29 20:10 045 12 gusting 19 28.3
2016-Aug-29 20:05 047 13 gusting 17 28.9
2016-Aug-29 20:00 049 13 gusting 18 28.9
2016-Aug-29 19:55 047 13 gusting 19 28.9
2016-Aug-29 19:50 045 14 gusting 19 28.9
2016-Aug-29 19:45 046 12 gusting 18 29.4
2016-Aug-29 19:40 049 8 gusting 17 29.4
2016-Aug-29 19:35 047 13 gusting 19 29.4
2016-Aug-29 19:30 044 9 gusting 23 30.0
2016-Aug-29 19:25 052 13 gusting 24 30.0
2016-Aug-29 19:15 040 14 gusting 19 30.6
2016-Aug-29 19:10 052 8 gusting 15 31.1
2016-Aug-29 19:05 052 6 gusting 15 31.7
2016-Aug-29 18:55 234 2 gusting 6 32.2
2016-Aug-29 18:50 232 3 gusting 8 32.2
2016-Aug-29 18:45 227 3 gusting 8 32.2
2016-Aug-29 18:40 223 6 gusting 8 32.2
2016-Aug-29 18:35 221 6 gusting 8 32.8
2016-Aug-29 18:30 225 6 gusting 8 32.8
2016-Aug-29 18:25 231 6 gusting 8 33.3
2016-Aug-29 18:20 234 5 gusting 9 33.3
2016-Aug-29 18:15 237 4 gusting 10 33.3
2016-Aug-29 18:10 246 4 gusting 11 33.9
2016-Aug-29 18:05 256 7 gusting 11 33.9
2016-Aug-29 18:00 265 9 gusting 11 33.9
2016-Aug-29 17:55 258 7 gusting 9 33.9
2016-Aug-29 17:50 228 6 gusting 9 33.9
2016-Aug-29 17:45 223 1 gusting 4 34.4
2016-Aug-29 17:35 281 3 gusting 9 33.9
2016-Aug-29 17:30 274 7 gusting 9 34.4
2016-Aug-29 17:20 240 4 gusting 11 35.0
2016-Aug-29 17:15 249 3 gusting 11 35.0
2016-Aug-29 17:05 267 2 gusting 13 35.0
2016-Aug-29 17:00 285 0 gusting 13 35.0
2016-Aug-29 16:55 292 8 gusting 11 35.6
2016-Aug-29 16:45 227 3 gusting 9 35.0
2016-Aug-29 16:40 358 5 gusting 6 35.0
2016-Aug-29 16:35 311 4 gusting 10 34.4
2016-Aug-29 16:25 296 6 gusting 13 34.4
2016-Aug-29 16:20 293 6 gusting 13 35.0
2016-Aug-29 16:15 301 6 gusting 9 35.0
2016-Aug-29 16:05 297 3 gusting 14 34.4
2016-Aug-29 16:00 292 6 gusting 14 34.4
2016-Aug-29 15:55 283 7 gusting 18 34.4
2016-Aug-29 15:50 285 9 gusting 18 35.0
2016-Aug-29 15:45 246 6 gusting 10 35.6
2016-Aug-29 15:40 257 0 gusting 12 34.4
2016-Aug-29 15:35 254 5 gusting 15 34.4
2016-Aug-29 15:30 248 9 gusting 15 34.4
2016-Aug-29 15:25 279 2 gusting 13 34.4
2016-Aug-29 15:15 251 6 gusting 15 33.9
2016-Aug-29 15:10 265 6 gusting 15 33.9
2016-Aug-29 15:05 261 11 gusting 14 33.9
2016-Aug-29 15:00 252 5 gusting 17 33.3
2016-Aug-29 14:55 253 13 gusting 17 33.9
2016-Aug-29 14:50 244 6 gusting 13 33.9
2016-Aug-29 14:45 219 3 gusting 14 33.3
2016-Aug-29 14:40 229 7 gusting 17 33.3
2016-Aug-29 14:35 270 11 gusting 17 33.3
2016-Aug-29 14:30 276 6 gusting 15 33.3
2016-Aug-29 14:25 251 9 gusting 15 33.9
2016-Aug-29 14:20 223 3 gusting 10 34.4
2016-Aug-29 14:15 253 6 gusting 12 33.3
2016-Aug-29 14:10 283 5 gusting 12 33.3
2016-Aug-29 14:05 259 7 gusting 17 33.3
2016-Aug-29 14:00 255 7 gusting 17 32.8
2016-Aug-29 13:55 289 13 gusting 14 33.3
2016-Aug-29 13:50 298 2 gusting 11 33.3
2016-Aug-29 13:45 259 6 gusting 8 33.9
2016-Aug-29 13:40 269 2 gusting 13 33.3
2016-Aug-29 13:35 252 3 gusting 13 32.8
2016-Aug-29 13:25 247 5 gusting 18 33.3
2016-Aug-29 13:20 270 5 gusting 18 32.2
2016-Aug-29 13:15 274 6 gusting 16 32.8
2016-Aug-29 13:10 261 9 gusting 16 33.3
2016-Aug-29 13:05 210 3 gusting 13 32.8
2016-Aug-29 13:00 235 1 gusting 14 32.2
2016-Aug-29 12:55 260 9 gusting 14 32.2
2016-Aug-29 12:45 265 6 gusting 14 32.2
2016-Aug-29 12:40 270 5 gusting 13 32.2
2016-Aug-29 12:35 264 3 gusting 13 32.2
2016-Aug-29 12:30 235 8 gusting 13 32.8
2016-Aug-29 12:25 228 13 gusting 13 32.2
2016-Aug-29 12:15 234 3 gusting 13 32.2
2016-Aug-29 12:10 220 3 gusting 9 32.2
2016-Aug-29 12:05 258 6 gusting 10 32.2
2016-Aug-29 12:00 281 1 gusting 11 32.2
2016-Aug-29 11:55 270 5 gusting 11 31.7
2016-Aug-29 11:50 122 6 gusting 9 32.8
2016-Aug-29 11:45 102 6 gusting 9 33.3
2016-Aug-29 11:40 089 2 gusting 4 33.3
2016-Aug-29 11:35 247 1 gusting 4 32.2
2016-Aug-29 11:30 211 1 gusting 7 32.2
2016-Aug-29 11:25 247 1 gusting 7 31.7
2016-Aug-29 11:20 325 1 gusting 6 31.7
2016-Aug-29 11:15 292 3 gusting 6 31.7
2016-Aug-29 11:10 229 0 gusting 9 31.1
2016-Aug-29 11:05 251 4 gusting 10 30.6
2016-Aug-29 10:55 160 1 gusting 5 32.2
2016-Aug-29 10:50 133 1 gusting 8 31.7
2016-Aug-29 10:45 133 1 gusting 8 30.6
2016-Aug-29 10:40 141 3 gusting 7 30.6
2016-Aug-29 10:35 137 1 gusting 7 30.6
2016-Aug-29 10:30 115 1 gusting 7 29.4
2016-Aug-29 10:25 058 3 gusting 8 29.4
2016-Aug-29 10:20 053 2 gusting 12 28.3
2016-Aug-29 10:15 078 6 gusting 12 28.9
2016-Aug-29 10:05 090 5 gusting 12 28.3
2016-Aug-29 10:00 116 9 gusting 12 28.9
2016-Aug-29 09:55 120 6 gusting 9 28.9
2016-Aug-29 09:50 099 3 gusting 9 28.3
2016-Aug-29 09:40 077 3 gusting 8 27.8
2016-Aug-29 09:35 071 6 gusting 9 27.8
2016-Aug-29 09:30 075 4 gusting 9 27.2
2016-Aug-29 09:25 064 5 gusting 12 27.2
2016-Aug-29 09:20 050 6 gusting 12 26.7
2016-Aug-29 09:15 042 6 gusting 12 26.7
2016-Aug-29 09:10 043 4 gusting 12 26.1
2016-Aug-29 09:00 066 6 gusting 13 26.1
2016-Aug-29 08:55 069 11 gusting 13 26.1
2016-Aug-29 08:50 078 8 gusting 10 26.1
2016-Aug-29 08:45 068 6 gusting 12 26.7
2016-Aug-29 08:35 069 8 gusting 13 25.6
2016-Aug-29 08:30 063 8 gusting 13 25.6
2016-Aug-29 08:25 051 5 gusting 11 25.0
2016-Aug-29 08:20 054 9 gusting 11 25.0
2016-Aug-29 08:15 066 7 gusting 12 25.0
2016-Aug-29 08:10 051 8 gusting 12 25.0
2016-Aug-29 08:05 031 6 gusting 13 24.4
2016-Aug-29 08:00 049 6 gusting 13 24.4
2016-Aug-29 07:55 060 9 gusting 13 24.4
2016-Aug-29 07:50 054 6 gusting 11 24.4
2016-Aug-29 07:45 065 6 gusting 11 24.4
2016-Aug-29 07:40 064 6 gusting 11 24.4
2016-Aug-29 07:30 057 4 gusting 12 23.3
2016-Aug-29 07:25 066 6 gusting 12 23.3
2016-Aug-29 07:20 054 6 gusting 11 23.9
2016-Aug-29 07:15 050 6 gusting 11 23.3
2016-Aug-29 07:10 045 7 gusting 12 23.3
2016-Aug-29 07:05 040 9 gusting 12 23.3
2016-Aug-29 07:00 045 7 gusting 12 23.3
2016-Aug-29 06:50 045 6 gusting 11 23.3
2016-Aug-29 06:45 047 9 gusting 12 23.3
2016-Aug-29 06:40 053 6 gusting 13 23.3
2016-Aug-29 06:35 054 9 gusting 13 23.3
2016-Aug-29 06:30 048 9 gusting 13 23.3
2016-Aug-29 06:25 049 7 gusting 12 23.3
2016-Aug-29 06:20 057 9 gusting 13 23.3
2016-Aug-29 06:15 059 6 gusting 13 23.3
2016-Aug-29 06:10 053 10 gusting 12 23.3
2016-Aug-29 06:05 056 6 gusting 13 23.3
2016-Aug-29 06:00 064 6 gusting 13 23.3